Probability
0 0 0 0 0 0 0 0 0 0 0 0 0 0 0 0 0 0 0 0 0 0 0 0 0 0 0 0 0 0 1 3 5 5 5 4 3 2 2 1 0 0 0 0
0 0 0 0 0 0 0 0 0 0 0 0 0 0 0 0 0 0 0 0 0 0 0 0 0 0 0 0 0 0 1 3 4 4 3 3 2 1 1 0 0 0 0 0
0 0 0 0 0 0 0 0 0 0 0 0 0 0 0 0 0 0 0 0 0 0 0 0 0 0 0 0 1 0 1 2 3 3 1 1 1 1 1 1 0 0 0 0
0 0 0 0 0 0 0 0 0 0 0 0 0 0 0 0 0 0 0 0 0 0 0 0 0 0 0 0 0 0 1 2 2 1 0 0 0 1 2 1 0 0 0 0
0 0 0 0 0 0 0 0 0 0 0 0 0 0 0 0 0 0 0 0 0 0 0 0 0 0 0 0 0 1 2 2 1 0 0 0 0 1 1 1 0 0 0 0
0 0 0 0 0 0 0 0 0 0 0 0 0 0 0 0 0 0 0 0 0 0 0 0 0 0 0 1 1 2 3 2 1 0 0 0 0 0 0 0 0 0 0 0
0 0 0 0 0 0 0 0 0 0 0 0 0 0 0 0 0 0 0 0 0 0 0 0 0 0 1 2 3 3 2 1 0 0 0 0 0 0 0 0 0 0 0 0
0 0 0 0 0 0 0 0 0 0 0 0 0 0 0 0 0 0 0 0 0 0 0 0 0 0 2 3 3 2 1 0 0 0 0 0 0 0 0 1 0 0 0 0
0 0 0 0 0 0 0 0 0 0 0 0 0 0 0 0 0 0 0 0 0 0 0 0 0 0 1 2 2 1 0 0 0 0 0 0 0 0 0 0 0 0 0 0
0 0 0 0 0 0 0 0 0 0 0 0 0 0 0 0 0 0 0 0 0 0 0 0 0 0 1 2 2 1 1 0 0 0 0 0 0 0 0 0 0 0 0 0
0 0 0 0 0 0 0 0 0 0 0 0 0 0 0 0 0 0 0 0 0 0 0 0 0 0 0 1 1 1 1 0 0 0 0 0 0 0 0 0 0 0 0 1
0 0 0 0 0 0 0 0 0 0 0 0 0 0 0 0 0 0 0 0 0 0 0 0 0 0 0 0 0 0 0 0 0 0 0 0 0 0 0 0 0 0 1 2
0 0 0 0 0 0 0 0 0 0 0 0 0 0 0 0 0 0 0 0 0 0 0 0 0 0 0 0 0 0 0 0 0 0 0 0 0 0 0 0 0 0 1 2
0 0 0 0 0 0 0 0 0 0 0 0 0 0 0 0 0 0 0 0 0 0 0 0 0 0 0 0 0 1 0 0 0 0 0 0 0 0 0 0 0 0 1 2
0 0 0 0 0 0 0 0 0 0 0 0 0 0 0 0 0 0 0 0 0 0 0 0 0 0 0 0 0 0 0 0 0 0 0 0 0 0 0 0 0 0 0 1
0 0 0 0 0 0 0 0 0 0 0 0 0 0 0 0 0 0 0 0 0 0 0 0 0 0 0 0 0 0 0 0 0 0 0 0 0 0 0 0 0 0 0 0
0 0 0 0 0 0 0 0 0 0 0 0 0 0 0 0 0 0 0 0 0 0 0 0 0 0 0 0 0 0 0 0 0 0 0 0 0 0 0 0 0 0 0 0
0 0 0 0 0 0 0 0 0 0 0 0 0 0 0 0 0 0 0 0 0 0 0 0 0 0 0 0 0 0 0 0 0 0 0 0 0 0 0 0 0 0 0 0
0 0 0 0 0 0 0 0 0 0 0 0 0 0 0 0 0 0 0 0 0 0 0 0 0 0 0 0 0 0 0 0 0 0 0 0 0 0 0 0 0 0 0 0
0 0 0 0 0 0 0 0 0 0 0 0 0 0 0 0 0 0 0 0 0 0 0 0 0 0 0 0 0 0 0 0 0 0 0 0 0 0 0 0 0 0 0 0
0 0 0 0 0 0 0 0 0 0 0 0 0 0 0 0 0 0 0 0 0 0 0 0 0 0 0 0 0 0 0 0 0 0 0 0 0 0 0 0 0 0 0 0
0 0 0 0 0 0 0 0 0 0 0 0 0 0 0 0 0 0 0 0 0 0 0 0 0 0 0 0 0 0 0 0 0 0 0 0 0 0 0 0 0 0 0 0
0 0 0 0 0 0 0 0 0 0 0 0 0 0 0 0 0 0 0 0 0 0 0 0 0 0 0 0 0 0 0 0 0 0 0 0 0 0 0 0 0 0 0 0
0 0 0 0 0 0 0 0 0 0 0 0 0 0 0 0 0 0 0 0 0 0 0 0 0 0 0 0 0 0 0 0 0 0 0 0 0 0 0 0 0 0 0 0
0 0 0 0 0 0 0 0 0 0 0 0 0 0 0 0 0 0 0 0 0 0 0 0 0 0 0 0 0 0 0 0 0 0 0 0 0 0 0 0 0 0 0 0
0 0 0 0 0 0 0 0 0 0 0 0 0 0 0 0 0 0 0 0 0 0 0 0 0 0 0 0 0 0 0 0 0 0 0 0 0 0 0 0 0 0 0 0
Wind_Speed
1 3 3 6 6 4 3 3 4 5 3 2 6 8 9 5 4 5 5 5 5 5 4 3 2 2 2 2 1 1 1 2 2 1 1 1 1 0 0 0 0 1 1 2
2 4 6 3 3 3 3 4 5 5 3 2 5 9 8 6 6 6 7 6 6 4 2 2 2 2 2 2 2 2 2 2 2 1 1 2 1 1 1 0 0 0 1 1
5 4 3 3 2 3 4 5 5 4 5 3 3 7 5 4 3 3 4 4 4 5 5 4 3 3 3 3 3 2 2 2 1 1 1 1 2 1 1 1 0 1 0 1
3 4 2 2 3 3 6 4 4 3 1 4 1 5 6 4 4 4 4 3 3 3 3 3 3 4 4 3 3 2 2 2 2 2 2 2 1 1 1 1 1 1 0 1
3 2 2 4 5 4 4 2 2 2 2 3 2 3 8 2 5 6 5 4 4 3 4 3 3 4 3 3 3 3 2 2 2 2 3 2 1 1 1 0 0 1 1 1
3 2 2 3 2 3 2 2 2 2 2 4 5 5 8 3 5 4 4 4 4 3 2 2 1 1 1 1 2 3 3 2 2 2 2 2 2 1 0 1 1 1 1 1
3 3 2 1 0 1 2 4 3 3 2 7 2 4 8 5 3 3 4 4 3 3 2 1 1 1 1 1 2 2 3 2 1 2 2 2 2 2 2 2 2 1 1 1
2 4 3 2 4 4 3 5 5 4 5 5 2 5 7 4 3 1 2 3 2 2 2 2 3 2 2 1 1 2 2 2 1 1 1 1 1 2 2 2 2 3 2 3
4 5 2 2 2 4 3 3 3 3 1 3 5 5 6 3 4 3 2 3 2 1 1 1 1 1 1 2 1 2 2 2 1 1 1 1 1 1 2 2 3 3 3 3
4 3 3 2 1 0 3 4 3 3 2 4 5 5 5 4 3 2 1 1 1 1 0 0 0 1 0 1 0 1 1 2 1 1 1 1 2 2 2 2 3 3 3 3
2 2 3 1 3 4 3 2 2 3 3 3 4 7 4 5 4 3 3 2 2 2 2 1 1 1 0 0 0 0 0 1 1 2 2 2 2 2 2 2 3 4 4 4
1 3 2 5 3 2 3 4 5 4 4 3 3 8 2 2 2 2 2 2 2 2 2 2 1 1 0 0 0 1 1 1 2 2 2 2 2 2 3 3 4 4 4 4
2 2 1 3 2 1 1 2 3 3 2 3 4 8 1 0 0 1 2 3 2 2 1 1 1 1 1 1 2 2 2 2 2 1 2 2 2 3 3 3 4 4 4 4
2 2 4 6 5 3 3 4 3 3 4 5 8 9 6 4 4 4 4 3 2 2 2 2 2 2 2 2 2 2 2 2 2 1 2 2 3 3 3 4 4 4 3 3
2 2 3 5 4 3 5 7 6 8 8 8 9 9 11 6 6 5 4 3 2 2 2 3 3 3 3 2 2 2 2 2 2 2 2 3 3 3 3 3 3 3 3 4
1 1 1 3 3 3 6 8 8 9 8 9 8 12 7 4 3 4 4 3 3 3 4 4 4 3 3 3 3 2 3 2 2 2 3 3 3 3 3 3 3 3 3 3
1 2 1 3 4 3 7 8 8 6 6 7 10 10 4 3 4 5 4 3 4 4 4 4 4 4 4 4 3 3 3 2 2 3 3 3 3 3 3 3 3 3 4 3
4 3 2 1 2 5 8 2 4 5 7 8 7 6 5 5 5 4 3 3 4 4 4 4 3 4 3 3 3 3 2 2 2 3 3 3 3 3 3 3 4 4 3 3
4 4 2 2 3 8 7 3 3 5 6 5 7 7 4 2 2 3 2 2 4 4 4 4 4 3 3 2 2 2 2 2 2 3 4 3 3 4 3 4 4 4 3 3
2 3 3 3 3 7 6 3 2 2 6 4 4 5 3 1 2 5 2 2 3 3 3 3 3 2 2 2 1 1 2 2 3 4 4 4 4 4 4 4 4 3 3 3
2 2 4 5 5 9 6 2 2 3 7 3 3 5 4 4 6 3 2 2 2 3 3 3 2 2 3 2 1 2 2 3 4 3 3 3 3 3 4 4 3 3 3 3
6 5 5 5 5 10 3 4 5 7 3 2 2 3 3 4 3 2 2 2 2 3 3 3 2 3 3 1 1 2 3 4 3 2 3 3 3 2 2 3 3 3 2 2
6 7 6 8 9 4 4 6 5 2 2 3 3 3 3 3 3 3 3 3 3 3 3 2 2 3 3 2 1 2 4 3 2 2 3 3 3 2 2 2 2 2 2 2
5 3 3 6 8 6 5 5 4 3 4 3 3 3 3 4 4 3 3 3 3 3 3 2 2 2 3 3 2 2 3 2 2 2 3 2 2 2 2 2 2 2 2 2
6 4 4 6 7 6 6 6 5 3 3 2 3 3 3 4 3 3 3 3 3 3 2 2 2 3 3 3 3 3 2 2 2 2 3 2 2 2 2 2 2 2 2 3
6 7 7 8 7 5 6 4 4 4 3 3 3 3 2 3 3 3 3 3 3 3 2 2 3 3 3 3 3 3 2 2 2 2 2 2 2 2 1 2 3 4 4 5
Wind_Direction
86 94 207 216 208 215 193 215 255 261 272 261 246 258 268 261 252 248 242 229 225 230 231 201 187 162 143 142 157 173 147 150 134 130 149 146 164 174 104 107 123 153 151 154
71 240 239 232 227 232 234 250 270 288 296 264 264 269 270 254 237 233 228 228 222 224 212 192 188 164 154 164 171 181 179 156 148 146 158 162 166 179 171 140 41 75 136 166
189 243 232 194 214 223 239 222 242 266 317 308 305 294 270 273 248 246 233 225 215 198 191 190 183 181 174 175 182 184 185 154 136 111 100 84 76 43 31 26 4 320 260 199
237 265 257 208 221 206 251 232 226 247 292 280 217 284 279 257 270 254 242 227 209 187 174 170 179 178 183 196 183 185 170 151 132 121 112 117 123 184 238 233 241 280 295 272
244 250 205 226 237 203 235 245 233 236 221 289 249 242 283 262 259 254 235 217 205 184 175 169 178 183 188 191 182 173 148 135 131 126 133 142 161 223 261 213 230 280 286 277
248 257 219 223 249 207 218 38 26 44 76 272 231 201 276 246 246 261 230 209 199 189 177 163 164 165 183 188 168 153 143 133 132 131 138 147 165 192 278 279 242 272 293 306
305 284 250 198 107 36 104 95 39 359 333 254 219 206 255 265 259 235 209 201 191 180 167 147 143 194 175 165 169 157 148 145 133 137 161 171 185 196 217 237 227 252 267 281
209 274 238 200 185 188 190 154 161 199 234 278 266 236 258 298 313 263 164 148 132 148 172 188 186 178 186 176 176 163 157 160 161 173 203 195 198 201 225 244 241 237 243 243
190 250 287 225 194 154 157 194 172 150 248 276 268 277 297 339 2 31 63 87 124 158 158 197 198 177 185 189 192 181 174 182 193 199 217 218 222 218 227 246 249 239 250 256
167 234 282 280 91 67 163 155 121 147 194 262 283 270 261 278 280 322 2 13 299 316 304 285 279 282 285 227 245 155 161 181 205 209 219 246 247 244 243 245 264 259 255 253
157 174 296 328 193 189 158 163 153 163 180 193 271 271 231 219 220 209 233 247 227 232 241 250 267 266 269 72 21 40 190 228 239 232 230 230 241 246 247 254 265 263 256 250
168 140 239 250 256 209 187 186 160 174 232 208 223 266 277 226 221 205 226 249 251 240 236 229 237 277 318 320 287 277 265 254 256 252 249 249 250 252 254 256 263 262 259 253
144 136 24 338 322 349 222 216 187 164 164 197 213 260 308 5 306 254 244 257 266 276 291 300 287 270 264 265 268 270 266 261 263 260 258 260 253 249 254 258 265 263 261 264
139 164 193 212 226 197 245 247 213 174 203 228 231 252 276 283 286 288 275 263 267 274 274 276 280 278 273 266 266 268 269 266 268 264 266 269 264 258 258 262 261 264 260 258
111 211 236 256 265 233 240 243 225 220 220 222 241 245 259 256 254 257 261 258 268 286 285 272 270 274 273 272 269 261 262 260 258 254 259 262 264 265 271 277 274 269 260 261
87 199 276 283 267 252 267 256 234 233 235 240 257 268 261 258 271 273 265 249 263 275 271 269 272 274 265 263 267 270 264 261 248 246 255 266 270 268 273 285 285 272 265 264
173 145 141 272 308 338 274 243 219 218 217 208 233 249 259 276 262 250 244 243 253 263 270 267 259 250 251 251 250 254 257 257 238 242 256 259 261 263 266 276 281 268 261 265
164 150 166 263 8 245 246 225 194 213 239 225 242 257 249 249 261 251 225 225 260 276 278 271 265 262 263 256 259 261 253 247 243 252 259 262 265 267 262 264 267 265 261 254
175 161 162 170 242 273 281 253 193 206 262 234 234 257 267 284 317 284 240 231 246 259 263 261 259 258 257 258 260 259 257 252 253 259 256 261 259 259 257 259 262 263 257 254
92 130 156 174 210 244 257 257 224 149 271 254 218 238 241 130 259 264 278 294 293 296 284 277 280 276 266 267 257 244 262 259 260 263 261 258 255 247 249 251 258 264 259 259
137 153 192 204 233 260 260 265 109 173 254 261 209 219 207 204 221 253 298 303 303 304 298 297 291 279 260 248 219 237 262 263 271 280 283 275 258 247 252 252 254 257 261 261
185 182 198 184 217 252 218 142 189 227 258 224 222 222 224 235 251 267 274 288 307 317 315 313 303 298 291 258 215 250 267 279 296 301 298 291 282 260 262 246 256 258 258 264
206 202 197 200 219 242 193 206 228 215 230 238 228 240 226 244 259 270 276 281 291 297 300 301 290 300 310 303 248 259 283 299 309 309 303 301 297 280 268 249 249 260 252 256
253 217 216 255 262 254 244 244 254 233 229 240 232 237 230 240 252 267 276 281 288 292 294 300 303 300 303 303 295 280 289 300 303 301 306 308 302 302 301 286 263 255 250 254
231 197 222 255 274 293 273 236 231 240 239 242 253 244 231 231 247 254 266 276 281 289 296 299 287 283 290 300 299 304 305 300 298 299 302 305 304 305 316 312 300 285 270 267
208 196 198 233 233 222 257 257 221 219 234 233 244 272 266 233 246 260 263 266 271 281 290 295 293 292 296 303 305 309 309 298 290 298 305 305 307 306 308 314 325 326 315 315